Regional Weather Roundup
Issued by NWS

Home | Current Version | Previous Version | Graphics & Text | Print | Product List | Glossary On
Versions: 1 2 3 4 5 6 7 8 9 10 11 12 13 14 15 16 17 18 19 20 21 22 23 24 25 26 27 28 29 30 31 32 33 34 35 36 37 38 39 40 41 42 43 44 45 46 47 48 49 50
000
ASUS43 KLMK 310710
RWRKY
KENTUCKY REGIONAL WEATHER ROUNDUP
NATIONAL WEATHER SERVICE LOUISVILLE KY
300 AM EDT WED AUG 31 2016

NOTE "FAIR" INDICATES FEW OR NO CLOUDS BELOW 12,000 FEET
WITH NO SIGNIFICANT WEATHER AND/OR OBSTRUCTIONS TO VISIBILITY.

KYZ001>023-026-027-061>063-070>075-310800-
WESTERN AND SOUTH CENTRAL KENTUCKY

CITY           SKY/WX    TMP DP  RH WIND       PRES   REMARKS
PADUCAH        CLEAR     74  71  91 NW3       30.03F
HENDERSON      CLEAR     73  70  88 CALM      30.02F
OWENSBORO      CLEAR     78  74  87 NE6       30.03F
HOPKINSVILLE   CLEAR     76  73  91 CALM      30.03S
BOWLING GREEN  CLEAR     74  72  93 CALM      30.03F
GLASGOW        CLEAR     71  71 100 CALM      30.04S
$$

KYZ024-025-028>034-038-045-046-053-310800-
NORTH CENTRAL KENTUCKY

CITY           SKY/WX    TMP DP  RH WIND       PRES   REMARKS
LOUISVILLE/SDF PTCLDY    77  70  79 N5        30.02F
LOUISVILLE/LOU CLEAR     76  69  79 N3        30.03F
FORT KNOX      CLEAR     73  71  93 VRB1      30.03S
$$

KYZ035>037-039>044-047>052-055>060-089>105-310800-
NORTHEAST KENTUCKY

CITY           SKY/WX    TMP DP  RH WIND       PRES   REMARKS
LEXINGTON      CLEAR     71  66  84 SE3       30.05F
COVINGTON      CLOUDY    72  68  87 CALM      30.04F
FRANKFORT      CLEAR     71  68  90 CALM      30.03F
$$

KYZ054-064>069-076>088-106>120-310800-
SOUTHEAST KENTUCKY

CITY           SKY/WX    TMP DP  RH WIND       PRES   REMARKS
JACKSON        PTCLDY    71  69  93 CALM      30.06F FOG
LONDON         CLEAR     70  67  90 CALM      30.06F
SOMERSET       CLEAR     70  70 100 CALM      30.06S FOG
MIDDLESBORO    CLEAR     67  67  99 CALM      30.08F
MONTICELLO     SUNNY    N/A N/A N/A W3        30.07S
$$





USA.gov is the U.S. government's official web portal to all federal, state and local government web resources and services.